Powrót do katalogu

SL-8 R/B

AktywnyLEO
NORAD 14402·ROCKET BODY·🇷🇺 Russia

Wystrzelony Oct 12, 1983 z Plesetsk Cosmodrome

Loading…

Następne Przeloty (najbliższe 24 godziny)

TLE

ŚwieżeSource: Space-Track

Epoka: Sep 14, 2026, 17:59 UTC

1 14402U 83103B   26257.74981256  .00000123  00000-0  49757-4 0  9992
2 14402  74.0457 174.9360 0027599 264.7209  95.0795 14.37433487246801

Śledź SL-8 R/B w czasie rzeczywistym z AllMySat

Download on the App Store